Regional Weather Roundup
Issued by NWS

Home | Current Version | Previous Version | Text Only | Print | Product List | Glossary Off
Versions: 1 2 3 4 5 6 7 8 9 10 11 12 13 14 15 16 17 18 19 20 21 22 23 24 25 26 27 28 29 30 31 32 33 34 35 36 37 38 39 40 41 42 43 44 45 46 47 48 49 50

000
ASUS43 KFSD 100310
RWRSD

WEATHER ROUNDUP FOR SOUTH DAKOTA
NATIONAL WEATHER SERVICE SIOUX FALLS SD
900 PM CST SAT DEC 09 2017

NOTE: "FAIR" INDICATES FEW OR NO CLOUDS BELOW 12,000 FEET WITH NO
SIGNIFICANT WEATHER AND/OR OBSTRUCTIONS TO VISIBILITY.


SDZ001>005-009-010-012>017-100400-
NORTHWEST AND NORTH CENTRAL SOUTH DAKOTA

CITY           SKY/WX    TMP DP  RH WIND       PRES   REMARKS
BUFFALO          N/A     43  19  38 W24       30.07R
FAITH            N/A     40  20  44 W16       30.06R
MOBRIDGE       CLEAR     42  27  55 NW9       29.95R
$$

SDZ012>016-024>037-041>051-057-063-072>074-100400-
SOUTHWEST AND SOUTH CENTRAL SOUTH DAKOTA

CITY           SKY/WX    TMP DP  RH WIND       PRES   REMARKS
RAPID CTY ARPT CLEAR     51   8  17 NW18      30.16R
PIERRE         CLEAR     43  23  45 W15       29.99F
CUSTER         CLEAR     44   2  17 NW13G23   30.22R
ELLSWORTH AFB  CLEAR     53   8  16 NW23G32   30.14R
PHILIP         CLEAR     49  18  29 NW25G33   30.08S
PINE RIDGE     CLEAR     43  20  39 W9        30.21R
SPEARFISH      FAIR      46  10  23 W15G22    30.23R
WINNER         FAIR      41  22  46 W15       30.04F
$$

SDZ004>011-016>023-039-040-100400-
NORTHEAST SOUTH DAKOTA

CITY           SKY/WX    TMP DP  RH WIND       PRES   REMARKS
ABERDEEN       CLOUDY    21  19  92 SW7       29.91S WCI  12
WATERTOWN      CLOUDY    28  24  85 SW14      29.88F WCI  17
BROOKINGS      CLOUDY    24  21  88 SW8       29.91F WCI  15
SISSETON         N/A     36  25  64 W21       29.81F
$$

SDZ017-020-022-023-036>040-048>070-100400-
SOUTHEAST SOUTH DAKOTA

CITY           SKY/WX    TMP DP  RH WIND       PRES   REMARKS
SIOUX FALLS    CLOUDY    28  23  81 SW7G16    29.96F WCI  21
HURON          CLOUDY    29  23  78 SW8       29.94F WCI  21
CHAMBERLAIN    CLOUDY    39  27  61 W14       30.00S
MITCHELL       CLOUDY    27  23  85 SW9       29.97F WCI  18
YANKTON        CLOUDY    26  22  84 SW6       29.99F WCI  19
$$

ABBREVIATIONS USED IN REMARKS
   TC - TEMPERATURE IN CELSIUS
  WCI - WIND CHILL INDEX
   HX - HEAT INDEX
  VSB - VISIBILITY





USA.gov is the U.S. government's official web portal to all federal, state and local government web resources and services.